Regional Weather Roundup
Issued by NWS Sioux Falls, SD

Home | Current Version | Previous Version | Text Only | Print | Product List | Glossary On
Versions: 1 2 3 4 5 6 7 8 9 10 11 12 13 14 15 16 17 18 19 20 21 22 23 24 25 26 27 28 29 30 31 32 33 34 35 36 37 38 39 40 41 42 43 44 45 46 47 48 49 50
000
ASUS43 KFSD 280702
RWRFSD

WEATHER ROUNDUP FOR SE SOUTH DAKOTA/SW MINNESOTA/NW IOWA
NATIONAL WEATHER SERVICE SIOUX FALLS SD
200 AM CDT TUE JUL 28 2015

NOTE: "FAIR" INDICATES FEW OR NO CLOUDS BELOW 12,000 FEET WITH NO
SIGNIFICANT WEATHER AND OR OBSTRUCTIONS TO VISIBILITY.


SDZ038>040-050-052>070-280800-
SOUTHEAST SOUTH DAKOTA

CITY           SKY/WX    TMP DP  RH WIND       PRES   REMARKS
BROOKINGS      CLOUDY    72  66  83 SE20      29.74F
CHAMBERLAIN    LGT RAIN  67  66  99 SE5       29.69F
HURON          HVY RAIN  68  67  96 NW17      29.73R FOG
MADISON        CLOUDY    72  72 100 S20G31    29.73F
MITCHELL       CLOUDY    78  74  87 S17G29    29.68S
SIOUX FALLS    MOCLDY    75  70  84 S15G28    29.73F
WINNER         FAIR      67  63  87 SE9       29.73F
YANKTON        CLOUDY    75  70  83 SE14      29.72F
$$

MNZ071-072-080-081-089-090-097-098-280800-
SOUTHWEST MINNESOTA

CITY           SKY/WX    TMP DP  RH WIND       PRES   REMARKS
FAIRMONT       MOCLDY    72  63  73 SE15      29.85F
JACKSON        PTCLDY    72  68  88 SE12G17   29.85F
LUVERNE        MOCLDY    73  68  83 S12       29.78F
MARSHALL       MOCLDY    73  64  73 S16       29.77F
MONTEVIDEO     MOCLDY    73  68  83 S14       29.78F
PIPESTONE      TSTM      72  66  83 S12       29.78F
REDWOOD FALLS  MOCLDY    72  66  81 SE13      29.79F
TRACY          CLOUDY    73  68  83 S13G20    29.78F
WINDOM         PTCLDY    72  66  83 SE14      29.83F
WORTHINGTON    MOCLDY    72  64  78 S15       29.81F
$$

IAZ001>003-012>014-020>022-031-032-NEZ013-014-SDZ071-280800-
NORTHWEST IOWA

CITY           SKY/WX    TMP DP  RH WIND       PRES   REMARKS
DENISON        MOCLDY    73  70  88 S14G22    29.82F
ESTHERVILLE    PTCLDY    69  67  93 SE10      29.85F
SIOUX CITY     MOCLDY    76  70  82 SE13      29.78F
SPENCER        MOCLDY    73  66  78 SE15      29.84F
$$

ABBREVIATIONS USED IN REMARKS
   TC - TEMPERATURE IN CELSIUS
  WCI - WIND CHILL INDEX
   HX - HEAT INDEX
  VSB - VISIBILITY




USA.gov is the U.S. government's official web portal to all federal, state and local government web resources and services.